DW4879 Weather Reports


time (UTC)temp
C
wind
direction
speed
KPH
gust
KPH
rain 1hr
cm
rain 24hr
cm
rain mn
cm
humidity
%
barometer
mb
20260901030505 16 127 1.6 3.2 0.00 0.15 0.15 85 1024.8
20260901030105 16 127 1.6 4.8 0.00 0.15 0.15 84 1024.8
20260901025552 16 127 1.6 4.8 0.00 0.15 0.15 84 1024.7
20260901025100 16 105 1.6 4.8 0.00 0.15 0.15 84 1024.7
20260901024553 16 113 1.6 4.8 0.00 0.15 0.15 84 1024.5
20260901024100 16 101 1.6 3.2 0.00 0.15 0.15 83 1024.5
20260901023553 16 101 1.6 6.4 0.00 0.15 0.15 83 1024.4
20260901023045 16 101 1.6 6.4 0.00 0.15 0.15 83 1024.3
20260901022551 16 109 1.6 9.7 0.00 0.15 0.15 82 1024.2
20260901022059 16 105 4.8 9.7 0.00 0.15 0.15 82 1024.1
20260901021503 16 87 3.2 8.0 0.00 0.15 0.15 82 1024.1
20260901021057 16 84 3.2 6.4 0.00 0.15 0.15 82 1024.3
20260901020605 16 44 3.2 6.4 0.00 0.15 0.15 82 1024.2
20260901020042 17 82 3.2 6.4 0.00 0.15 0.15 82 1024.1
20260901015551 17 65 3.2 6.4 0.00 0.15 0.15 82 1024.2
20260901015059 17 107 1.6 6.4 0.00 0.15 0.15 81 1024.3
20260901014558 17 80 3.2 6.4 0.00 0.15 0.15 81 1024.2
20260901014059 17 85 1.6 6.4 0.00 0.15 0.15 80 1024.4
20260901013551 17 114 1.6 8.0 0.00 0.15 0.15 80 1024.5
20260901013044 17 105 3.2 8.0 0.00 0.15 0.15 79 1024.3
20260901012552 17 77 1.6 11.3 0.00 0.15 0.15 79 1024.3
20260901012059 17 99 4.8 12.9 0.00 0.15 0.15 79 1024.4
20260901011503 17 130 6.4 12.9 0.00 0.15 0.15 78 1024.4
20260901011101 17 89 4.8 11.3 0.00 0.15 0.15 78 1024.4
20260901010503 18 80 3.2 9.7 0.00 0.15 0.15 77 1024.4
20260901010059 18 103 3.2 9.7 0.00 0.15 0.15 77 1024.5
20260901005504 18 102 4.8 8.0 0.00 0.23 0.15 76 1024.4
20260901005011 18 105 3.2 8.0 0.00 0.23 0.15 76 1024.3
20260901004603 18 78 3.2 8.0 0.00 0.23 0.15 76 1024.2
20260901004007 18 72 1.6 4.8 0.00 0.23 0.15 77 1024.5
20260901003604 18 111 3.2 4.8 0.00 0.23 0.15 75 1024.6
20260901003008 18 111 1.6 4.8 0.00 0.23 0.15 75 1024.7
20260901002603 18 93 1.6 6.4 0.00 0.23 0.15 76 1024.7
20260901002053 18 64 3.2 6.4 0.00 0.23 0.15 76 1024.6
20260901001609 18 84 3.2 8.0 0.00 0.23 0.15 75 1024.6
20260901001053 18 89 1.6 8.0 0.00 0.23 0.15 76 1024.8
20260901000601 18 88 4.8 8.0 0.00 0.23 0.15 76 1025.0
20260831235547 18 101 3.2 6.4 0.00 0.81 0.15 77 1025.2
20260831235052 18 50 0.0 3.2 0.00 0.81 0.15 70 1025.2
20260831234626 18 50 1.6 8.0 0.00 0.81 0.15 71 1025.2
20260831234004 18 34 1.6 8.0 0.00 0.81 0.15 72 1025.2
20260831233602 19 22 3.2 8.0 0.00 0.81 0.15 72 1025.1
20260831233004 19 38 0.0 8.0 0.00 0.81 0.15 72 1025.2
20260831232601 19 38 3.2 8.0 0.00 0.81 0.15 72 1025.2
20260831232004 19 86 1.6 9.7 0.00 0.81 0.15 70 1025.2
20260831231512 19 117 3.2 12.9 0.00 0.81 0.15 71 1025.2
20260831231105 18 138 3.2 12.9 0.00 0.81 0.15 74 1025.1
20260831230509 18 46 3.2 9.7 0.00 0.81 0.15 74 1025.1
20260831230104 18 92 4.8 9.7 0.00 0.81 0.15 74 1025.1
20260831225554 18 78 6.4 9.7 0.00 0.81 0.15 74 1025.2
20260831225103 18 80 3.2 8.0 0.00 0.81 0.15 74 1025.1
20260831224554 18 136 4.8 9.7 0.00 0.81 0.15 76 1025.3
20260831224105 18 123 3.2 6.4 0.00 0.81 0.15 76 1025.4
20260831223555 18 86 3.2 9.7 0.00 0.81 0.15 74 1025.4
20260831223045 18 76 3.2 9.7 0.00 0.81 0.15 74 1025.4
20260831222553 18 90 1.6 8.0 0.00 0.81 0.15 75 1025.4
20260831222100 18 74 1.6 9.7 0.00 0.81 0.15 74 1025.4
20260831221504 18 105 4.8 9.7 0.00 0.81 0.15 75 1025.5
20260831221058 18 70 1.6 4.8 0.00 0.81 0.15 75 1025.5
20260831220605 18 62 0.0 3.2 0.00 0.81 0.15 74 1025.7
20260831220042 18 62 0.0 3.2 0.00 0.81 0.15 75 1025.7
20260831215558 18 355 0.0 6.4 0.00 0.81 0.15 77 1025.8
20260831215015 18 347 1.6 8.0 0.00 0.81 0.15 76 1025.8
20260831214530 18 336 3.2 8.0 0.00 0.81 0.15 77 1025.8
20260831214047 18 346 4.8 8.0 0.00 0.81 0.15 76 1025.8
20260831213506 18 317 4.8 12.9 0.00 0.81 0.15 77 1026.0
20260831213022 18 19 3.2 12.9 0.00 0.81 0.15 77 1025.8
20260831212541 18 355 3.2 9.7 0.00 0.81 0.15 77 1025.7
20260831212054 18 17 4.8 9.7 0.00 0.81 0.15 78 1025.8
20260831211517 18 34 3.2 8.0 0.00 0.81 0.15 78 1025.7
20260831211036 18 30 3.2 8.0 0.00 0.81 0.15 77 1025.8
20260831210546 18 75 0.0 4.8 0.00 0.81 0.15 76 1025.9
20260831210056 18 67 1.6 4.8 0.00 0.81 0.15 75 1026.0
20260831205513 18 9 1.6 4.8 0.00 0.81 0.15 76 1026.1
20260831205028 18 63 1.6 4.8 0.00 0.81 0.15 77 1026.3
20260831204509 18 106 1.6 3.2 0.00 0.81 0.15 76 1026.4
20260831204026 18 114 0.0 3.2 0.00 0.81 0.15 77 1026.5
20260831203541 18 145 0.0 6.4 0.00 0.81 0.15 76 1026.4
20260831203110 18 53 3.2 6.4 0.00 0.81 0.15 77 1026.4
20260831202513 18 115 1.6 4.8 0.00 0.81 0.15 76 1026.4
20260831202030 17 323 3.2 6.4 0.00 0.81 0.15 78 1026.4
20260831201547 17 64 1.6 6.4 0.00 0.81 0.15 78 1026.3
20260831201056 17 126 3.2 11.3 0.00 0.81 0.15 80 1026.5
20260831200545 17 30 4.8 11.3 0.00 0.81 0.15 81 1026.4
20260831200052 17 80 3.2 14.5 0.00 0.81 0.15 83 1026.2
20260831195604 17 32 8.0 17.7 0.00 0.81 0.15 82 1026.0
20260831195004 17 24 8.0 16.1 0.00 0.81 0.15 83 1026.0
20260831194604 17 13 8.0 16.1 0.00 0.81 0.15 83 1026.2
20260831194002 17 346 8.0 19.3 0.00 0.81 0.15 84 1026.3
20260831193600 17 360 8.0 19.3 0.00 0.81 0.15 85 1026.5
20260831193004 17 333 11.3 19.3 0.00 0.81 0.15 84 1026.5
20260831192601 16 320 11.3 22.5 0.00 0.81 0.15 84 1026.7
20260831192004 16 341 12.9 22.5 0.05 0.81 0.15 86 1026.8
20260831191511 16 328 11.3 19.3 0.08 0.81 0.15 87 1026.9
20260831191107 16 295 14.5 19.3 0.08 0.81 0.15 87 1026.9
20260831190508 16 317 12.9 17.7 0.10 0.81 0.15 88 1027.2
20260831190104 16 265 8.0 16.1 0.10 0.81 0.15 89 1027.2
20260831185553 16 302 9.7 16.1 0.10 0.81 0.15 89 1027.2
20260831185101 16 267 4.8 14.5 0.10 0.81 0.15 88 1027.2
20260831184552 16 271 3.2 14.5 0.10 0.81 0.15 88 1027.2
20260831184044 16 272 4.8 14.5 0.10 0.81 0.15 88 1027.2
20260831183549 16 273 8.0 20.9 0.10 0.81 0.15 89 1027.0
20260831183100 16 299 9.7 20.9 0.10 0.81 0.15 88 1027.0
20260831182606 16 276 11.3 22.5 0.10 0.81 0.15 87 1026.9
20260831182056 16 306 16.1 20.9 0.10 0.79 0.13 84 1026.5
20260831181605 17 283 8.0 12.9 0.05 0.71 0.08 82 1027.6
20260831181055 17 254 3.2 9.7 0.05 0.71 0.08 82 1028.0
20260831180605 17 206 1.6 9.7 0.05 0.71 0.08 80 1028.0
20260831180044 17 227 1.6 6.4 0.03 0.71 0.05 80 1028.0
20260831175534 17 205 3.2 6.4 0.03 0.71 0.05 80 1027.9
20260831175042 17 230 1.6 8.0 0.03 0.71 0.05 80 1027.9
20260831174549 17 228 1.6 11.3 0.03 0.71 0.05 79 1027.8
20260831174057 17 226 3.2 11.3 0.03 0.71 0.05 76 1027.8
20260831173550 17 242 1.6 12.9 0.03 0.71 0.05 77 1027.7
20260831173059 18 254 4.8 12.9 0.03 0.71 0.05 74 1027.7
20260831172550 18 263 3.2 8.0 0.03 0.71 0.05 74 1027.6
20260831172058 18 273 3.2 11.3 0.00 0.69 0.03 72 1027.5
20260831171501 19 294 4.8 9.7 0.00 0.69 0.03 69 1027.4
20260831171056 19 305 3.2 9.7 0.00 0.69 0.03 66 1027.4
20260831170604 19 315 6.4 14.5 0.00 0.69 0.03 66 1027.3
20260831170058 19 327 8.0 14.5 0.00 0.69 0.03 66 1027.3
20260831165545 19 351 4.8 12.9 0.00 0.69 0.03 67 1027.2
20260831165055 19 324 6.4 12.9 0.00 0.69 0.03 66 1027.1
20260831164546 18 306 6.4 14.5 0.00 0.69 0.03 66 1027.0
20260831164054 18 319 6.4 14.5 0.00 0.69 0.03 67 1027.0
20260831163603 18 319 8.0 16.1 0.00 0.69 0.03 66 1026.9
20260831163005 18 318 9.7 16.1 0.00 0.69 0.03 67 1026.9
20260831162601 18 295 9.7 16.1 0.00 0.69 0.03 66 1026.8
20260831162003 18 328 9.7 16.1 0.00 0.69 0.03 67 1026.7
20260831161608 18 313 8.0 19.3 0.00 0.69 0.03 68 1026.6
20260831161050 18 317 12.9 19.3 0.00 0.69 0.03 68 1026.4
20260831160558 18 317 9.7 19.3 0.00 0.69 0.03 69 1026.3
20260831160056 18 329 9.7 20.9 0.00 0.69 0.03 69 1026.3
20260831155559 18 338 11.3 16.1 0.00 0.69 0.03 70 1026.2
20260831155052 17 303 8.0 17.7 0.00 0.69 0.03 71 1026.2
20260831154553 17 319 11.3 17.7 0.00 0.69 0.03 71 1026.2
20260831154052 17 321 9.7 17.7 0.00 0.69 0.03 72 1026.2
20260831153603 17 322 9.7 17.7 0.00 0.69 0.03 72 1026.3
20260831153004 17 338 6.4 16.1 0.00 0.69 0.03 73 1026.3
20260831152601 17 309 9.7 16.1 0.00 0.69 0.03 73 1026.4
20260831152003 17 341 8.0 12.9 0.00 0.69 0.03 73 1026.5
20260831151608 17 315 8.0 12.9 0.00 0.69 0.03 74 1026.5
20260831151053 17 310 4.8 16.1 0.00 0.69 0.03 75 1026.6
20260831150559 17 304 8.0 17.7 0.00 0.69 0.03 75 1026.6
20260831150055 17 297 8.0 19.3 0.00 0.69 0.03 75 1026.6
20260831145559 17 263 11.3 20.9 0.00 0.69 0.03 75 1026.5
20260831145002 17 284 12.9 20.9 0.00 0.69 0.03 73 1026.4
20260831144511 18 294 6.4 16.1 0.00 0.69 0.03 71 1026.5
20260831144017 18 304 4.8 11.3 0.00 0.69 0.03 71 1026.5
20260831143526 17 261 4.8 9.7 0.00 0.69 0.03 72 1026.4
20260831143032 17 265 1.6 4.8 0.00 0.69 0.03 71 1026.2
20260831142541 17 120 0.0 11.3 0.00 0.69 0.03 71 1026.0
20260831142049 17 83 3.2 12.9 0.00 0.69 0.03 72 1025.7
20260831141603 17 80 6.4 12.9 0.00 0.69 0.03 72 1025.5
20260831141107 17 115 4.8 14.5 0.00 0.69 0.03 72 1025.6
20260831140506 17 98 4.8 16.1 0.00 0.69 0.03 74 1025.4
20260831140010 16 118 8.0 16.1 0.00 0.69 0.03 73 1025.3
20260831135605 16 76 11.3 17.7 0.00 0.69 0.03 74 1025.2
20260831135054 16 78 9.7 17.7 0.00 0.69 0.03 74 1025.2
20260831134603 16 107 9.7 19.3 0.00 0.69 0.03 74 1025.1
20260831134053 16 69 9.7 19.3 0.00 0.69 0.03 75 1024.8
20260831133602 16 138 6.4 17.7 0.00 0.69 0.03 75 1024.9
20260831133004 16 69 8.0 16.1 0.00 0.69 0.03 76 1024.7
20260831132559 16 107 8.0 16.1 0.00 0.69 0.03 76 1024.7
20260831132002 15 93 8.0 17.7 0.00 0.69 0.03 77 1024.6
20260831131617 15 109 8.0 17.7 0.00 0.69 0.03 77 1024.6
20260831131003 15 88 4.8 11.3 0.00 0.69 0.03 78 1024.5
20260831130601 15 89 3.2 9.7 0.00 0.69 0.03 78 1024.6
20260831130053 15 117 4.8 12.9 0.00 0.69 0.03 78 1024.5
20260831125558 15 94 3.2 12.9 0.00 0.69 0.03 77 1024.4
20260831125050 15 76 6.4 12.9 0.00 0.69 0.03 77 1024.3
20260831124539 15 73 4.8 12.9 0.00 0.69 0.03 77 1024.2
20260831124048 15 107 4.8 20.9 0.00 0.69 0.03 77 1024.2
20260831123556 16 84 8.0 20.9 0.00 0.69 0.03 77 1024.2
20260831123100 16 126 11.3 19.3 0.00 0.69 0.03 76 1024.1
20260831122552 16 99 9.7 17.7 0.00 0.69 0.03 76 1024.2
20260831122100 16 130 9.7 16.1 0.00 0.69 0.03 75 1024.4
20260831121602 16 147 4.8 9.7 0.00 0.69 0.03 74 1024.4
20260831121044 16 71 1.6 14.5 0.00 0.69 0.03 74 1024.5
20260831120551 16 36 4.8 16.1 0.00 0.69 0.03 73 1024.5
20260831120100 16 51 4.8 19.3 0.00 0.69 0.03 73 1024.5
20260831115502 16 53 8.0 19.3 0.00 0.69 0.03 73 1024.2
20260831115057 16 65 9.7 19.3 0.00 0.69 0.03 72 1024.2
20260831114605 16 50 8.0 16.1 0.00 0.69 0.03 73 1024.0
20260831114058 16 108 8.0 16.1 0.00 0.69 0.03 72 1024.0
20260831113501 16 82 6.4 14.5 0.00 0.69 0.03 72 1023.9
20260831113059 16 59 6.4 12.9 0.00 0.69 0.03 71 1023.9
20260831112555 16 64 6.4 17.7 0.00 0.69 0.03 71 1023.9
20260831112040 16 82 8.0 24.1 0.00 0.69 0.03 71 1023.8
20260831111555 16 63 12.9 32.2 0.00 0.69 0.03 70 1023.6
20260831111043 16 57 19.3 35.4 0.00 0.69 0.03 70 1023.5
20260831110549 16 61 20.9 35.4 0.00 0.69 0.03 70 1023.3
20260831105501 16 46 20.9 30.6 0.00 0.69 0.03 71 1023.7
20260831105058 16 53 19.3 29.0 0.00 0.69 0.03 71 1023.8
20260831104604 16 46 17.7 32.2 0.00 0.69 0.03 71 1023.9
20260831104056 16 41 19.3 32.2 0.00 0.69 0.03 71 1023.9
20260831103600 16 56 16.1 24.1 0.00 0.69 0.03 75 1024.5
20260831103004 16 54 11.3 16.1 0.00 0.69 0.03 76 1024.8
20260831102559 16 80 8.0 16.1 0.00 0.69 0.03 76 1025.0
20260831102003 16 45 4.8 9.7 0.00 0.69 0.03 77 1025.1
20260831101602 16 37 4.8 8.0 0.00 0.69 0.03 78 1025.1
20260831101002 16 31 4.8 8.0 0.00 0.69 0.03 79 1025.2
20260831100508 17 9 1.6 3.2 0.00 0.69 0.03 78 1025.4
20260831100037 17 9 0.0 3.2 0.00 0.69 0.03 78 1025.4
20260831095546 17 84 1.6 4.8 0.00 0.69 0.03 77 1025.4
20260831095056 17 145 1.6 4.8 0.00 0.69 0.03 76 1025.5
20260831094601 17 150 3.2 4.8 0.00 0.69 0.03 73 1025.4
20260831094001 17 164 0.0 8.0 0.00 0.69 0.03 72 1025.5
20260831093558 17 164 3.2 8.0 0.00 0.69 0.03 70 1025.5
20260831093105 17 128 1.6 8.0 0.00 0.69 0.03 67 1025.5
20260831092601 17 69 1.6 8.0 0.03 0.69 0.03 66 1025.4
20260831092106 17 41 3.2 8.0 0.03 0.69 0.03 68 1025.5
20260831091512 17 59 3.2 12.9 0.03 0.69 0.03 67 1025.4
20260831091016 17 58 6.4 9.7 0.03 0.69 0.03 67 1025.4
20260831090524 17 44 4.8 14.5 0.03 0.69 0.03 68 1025.5
20260831090032 17 55 6.4 14.5 0.03 0.69 0.03 70 1025.5
20260831085543 16 40 8.0 14.5 0.03 0.69 0.03 72 1025.4
20260831085031 16 63 6.4 14.5 0.03 0.69 0.03 73 1025.5
20260831084539 16 61 4.8 14.5 0.03 0.69 0.03 75 1025.5
20260831084048 16 36 8.0 17.7 0.03 0.69 0.03 77 1025.4
20260831083556 16 17 9.7 19.3 0.03 0.69 0.03 78 1025.4
20260831083053 17 9 6.4 20.9 0.03 0.69 0.03 76 1025.4
20260831082555 17 360 8.0 17.7 0.00 0.66 0.00 74 1025.6
20260831082048 17 355 4.8 16.1 0.00 0.66 0.00 74 1025.7
20260831081556 17 23 8.0 16.1 0.00 0.66 0.00 75 1025.6
20260831081046 17 347 6.4 14.5 0.00 0.66 0.00 76 1025.8
20260831080537 17 5 4.8 8.0 0.00 0.66 0.00 75 1025.6
20260831080045 17 26 3.2 8.0 0.00 0.66 0.00 74 1025.4
20260831075541 17 56 3.2 14.5 0.00 0.66 0.00 74 1025.3
20260831075046 17 68 6.4 14.5 0.00 0.66 0.00 74 1025.1
20260831074554 17 76 6.4 11.3 0.00 0.66 0.00 73 1025.1
20260831074104 17 77 4.8 12.9 0.00 0.66 0.00 74 1025.1
20260831073555 17 60 4.8 9.7 0.00 0.66 0.00 73 1025.1
20260831073103 17 82 4.8 14.5 0.00 0.66 0.00 73 1025.1
20260831072557 17 82 8.0 17.7 0.00 0.66 0.00 73 1025.1
20260831072048 17 82 8.0 17.7 0.00 0.66 0.00 72 1025.0
20260831071556 17 91 6.4 12.9 0.00 0.66 0.00 71 1025.1
20260831071053 17 80 4.8 19.3 0.00 0.66 0.00 71 1025.2
20260831070557 17 96 4.8 19.3 0.00 0.66 0.00 70 1025.0
20260831070050 17 117 9.7 17.7 0.00 0.66 0.00 70 1024.8
20260831065540 17 98 4.8 12.9 0.00 0.66 0.00 71 1024.8
20260831065049 17 105 6.4 12.9 0.00 0.66 0.00 71 1024.7
20260831064542 17 103 3.2 9.7 0.00 0.66 0.00 71 1024.7
20260831064051 17 111 3.2 6.4 0.00 0.66 0.00 71 1024.7
20260831063557 17 131 1.6 4.8 0.00 0.66 0.00 69 1024.6
20260831063000 17 104 1.6 6.4 0.00 0.66 0.00 69 1024.5
20260831062558 17 101 3.2 6.4 0.00 0.66 0.00 68 1024.2
20260831062001 17 38 1.6 6.4 0.00 0.66 0.00 69 1024.0
20260831061558 17 9 1.6 6.4 0.00 0.66 0.00 70 1023.9
20260831061003 17 5 0.0 3.2 0.00 0.66 0.00 72 1023.9
20260831060507 17 9 0.0 4.8 0.00 0.66 0.00 73 1024.0
20260831060001 17 5 1.6 4.8 0.00 0.66 0.00 72 1023.9
20260831055509 17 71 0.0 4.8 0.00 0.66 0.66 72 1024.0
20260831055104 17 102 1.6 4.8 0.00 0.66 0.66 71 1024.0
20260831054509 17 125 1.6 9.7 0.00 0.66 0.66 70 1024.1
20260831054103 18 106 3.2 11.3 0.00 0.66 0.66 69 1024.1
20260831053558 18 101 4.8 11.3 0.00 0.66 0.66 67 1024.0
20260831053105 18 49 6.4 16.1 0.00 0.66 0.66 67 1023.9
20260831052557 18 67 8.0 17.7 0.00 0.66 0.66 67 1023.9
20260831052046 18 63 8.0 19.3 0.00 0.66 0.66 67 1023.9
20260831051554 18 47 8.0 19.3 0.00 0.66 0.66 67 1023.9
20260831051103 18 50 9.7 19.3 0.00 0.66 0.66 68 1023.9
20260831050504 18 77 9.7 19.3 0.00 0.66 0.66 67 1023.9
20260831050101 18 87 11.3 24.1 0.00 0.66 0.66 66 1023.9
20260831045504 18 71 9.7 29.0 0.00 0.66 0.66 67 1023.9
20260831045101 18 30 11.3 30.6 0.00 0.66 0.66 66 1023.8
20260831044504 18 47 16.1 25.7 0.00 0.66 0.66 66 1023.8
20260831044101 18 46 11.3 25.7 0.00 0.66 0.66 67 1023.7
20260831043504 18 41 16.1 30.6 0.00 0.66 0.66 66 1023.8
20260831043101 18 69 19.3 37.0 0.00 0.66 0.66 66 1023.8
20260831042503 18 20 20.9 30.6 0.00 0.66 0.66 67 1023.9
20260831042011 18 65 17.7 30.6 0.00 0.66 0.66 68 1023.9
20260831041615 18 63 17.7 30.6 0.00 0.66 0.66 68 1024.0
20260831041008 18 65 17.7 29.0 0.00 0.66 0.66 71 1023.9
20260831040515 18 55 11.3 20.9 0.00 0.66 0.66 74 1024.0
20260831040035 18 80 8.0 16.1 0.00 0.66 0.66 74 1024.1
20260831035530 18 63 6.4 12.9 0.00 0.66 0.66 74 1024.2
20260831035039 18 98 6.4 12.9 0.00 0.66 0.66 74 1024.3
20260831034549 18 86 6.4 11.3 0.00 0.66 0.66 73 1024.6
20260831034055 18 128 3.2 9.7 0.00 0.66 0.66 73 1024.7
20260831033606 18 96 3.2 12.9 0.00 0.66 0.66 72 1024.6
20260831033006 18 86 4.8 16.1 0.00 0.66 0.66 72 1024.6
20260831032604 18 71 8.0 16.1 0.00 0.66 0.66 71 1024.5
20260831032006 18 78 6.4 16.1 0.00 0.66 0.66 74 1024.3
20260831031606 18 70 9.7 16.1 0.00 0.66 0.66 74 1024.3
20260831031054 18 80 8.0 17.7 0.00 0.66 0.66 73 1024.3